Regional Weather Roundup
Issued by NWS

Home | Current Version | Previous Version | Graphics & Text | Print | Product List | Glossary On
Versions: 1 2 3 4 5 6 7 8 9 10 11 12 13 14 15 16 17 18 19 20 21 22 23 24 25 26 27 28 29 30 31 32 33 34 35 36 37 38 39 40 41 42 43 44 45 46 47 48 49 50
000
ASUS43 KOAX 291602
RWRNE

WEATHER ROUNDUP FOR NEBRASKA
NATIONAL WEATHER SERVICE OMAHA NE
1100 AM CDT SAT AUG 29 2015

NOTES: SATELLITE DATA IS BEING USED TO AUGMENT CLOUD COVER ABOVE
       12000 FEET.
       "FAIR" INDICATES FEW OR NO CLOUDS BELOW 12,000 FEET WITH NO
       SIGNIFICANT WEATHER AND/OR OBSTRUCTIONS TO VISIBILITY.

  * THESE STATIONS DO NOT REPORT WEATHER SUCH AS RAIN...SNOW OR FOG.

NEZ001>004-019>022-054>056-291700-
NEBRASKA PANHANDLE

CITY           SKY/WX    TMP DP  RH WIND       PRES   REMARKS
SCOTTSBLUFF    SUNNY     70  53  54 E5        30.17F
ALLIANCE       SUNNY     77  50  38 SW5       30.16F
CHADRON        SUNNY     79  48  33 SW3       30.11S HAZE
KIMBALL        SUNNY     79  46  30 S5        30.23S
SIDNEY         SUNNY     82  47  29 SW8       30.22R
$$

NEZ057>060-069>072-079>082-291700-
SOUTHWEST NEBRASKA

CITY           SKY/WX    TMP DP  RH WIND       PRES   REMARKS
NORTH PLATTE   SUNNY     72  63  73 NW3       30.15S
IMPERIAL       SUNNY     77  58  51 W6        30.18R
LEXINGTON      SUNNY     71  65  82 W5        30.14R
MC COOK        SUNNY     74  61  63 VRB3      30.15R
OGALLALA       SUNNY     69  58  68 W3        30.17S
$$

NEZ005>010-023>029-035>040-094-291700-
NORTH CENTRAL NEBRASKA

CITY           SKY/WX    TMP DP  RH WIND       PRES   REMARKS
VALENTINE      PTSUNNY   71  61  70 SW6       30.09S
BROKEN BOW     MOSUNNY   73  65  75 CALM      30.13R
O`NEILL        MOSUNNY   72  68  89 S5        30.11S
ORD            SUNNY     72  63  73 CALM      30.11S
THEDFORD       MOSUNNY   76  63  65 SW6       30.14S
$$

NEZ041-046>049-061>064-073>077-083>087-291700-
SOUTH CENTRAL NEBRASKA

CITY           SKY/WX    TMP DP  RH WIND       PRES   REMARKS
GRAND ISLAND   CLOUDY    66  60  81 VRB6      30.12S
AURORA         PTSUNNY   65  64  96 N5        30.11S
HASTINGS       PTSUNNY   66  62  87 N7        30.12S
HEBRON         CLOUDY    64  58  81 N6        30.10R
HOLDREGE       SUNNY     70  63  78 N3        30.14S
KEARNEY *      SUNNY     72  63  73 NW3       30.13S
YORK           CLOUDY    63  59  88 NW6       30.10F
$$

NEZ011>018-030>034-042>045-291700-
NORTHEAST NEBRASKA

CITY           SKY/WX    TMP DP  RH WIND       PRES   REMARKS
NORFOLK        PTSUNNY   65  59  81 N3        30.09S
ALBION         MOSUNNY   64  62  94 CALM      30.11S
BLAIR          CLOUDY    61  59  91 N6        30.08S
COLUMBUS *     CLOUDY    63  55  77 N5        30.10S
FREMONT        CLOUDY    63  59  88 N5        30.09S
TEKAMAH        CLOUDY    63  59  87 VRB3      30.08R
$$

NEZ050>053-065>068-078-088>093-291700-
SOUTHEAST NEBRASKA

CITY           SKY/WX    TMP DP  RH WIND       PRES   REMARKS
LINCOLN        CLOUDY    63  60  90 N7        30.10R
OMAHA EPPLEY   CLOUDY    62  60  93 N9        30.08R
BEATRICE       CLOUDY    64  61  90 NW12      30.08R
FALLS CITY     CLOUDY    66  63  90 N9        30.04R
NEBRASKA CITY  CLOUDY    62  62  99 N7        30.07R FOG
PLATTSMOUTH    CLOUDY    62  59  92 N3        30.07R FOG
$$

NEZ044-045-051>053-067-291700-
OMAHA AREA

CITY           SKY/WX    TMP DP  RH WIND       PRES   REMARKS
EPPLEY FIELD   CLOUDY    62  60  93 N9        30.08R
BLAIR          CLOUDY    61  59  91 N6        30.08S
FREMONT        CLOUDY    63  59  88 N5        30.09S
MILLARD        CLOUDY    63  59  88 N3        30.07R
OFFUTT AFB     CLOUDY    63  59  88 VRB7      30.07R FOG
PLATTSMOUTH    CLOUDY    62  59  92 N3        30.07R FOG
WAHOO          CLOUDY    62  60  92 N6        30.09R
$$



USA.gov is the U.S. government's official web portal to all federal, state and local government web resources and services.